World > North America > United States > Oregon

Lebanon, Oregon Regional Weather

Lat: 44.53N, Lon: 122.9W
Wx Zone: ORZ008Web Search
Lebanon Weather Warning NWS WEATHER ALERT FOR THE LEBANON, OR AREA - DENSE FOG ADVISORY Issued: 1256 PM PST Fri Dec 4 2020 Lebanon Weather Warning  

Helpful Tip: Abbreviated, 7 Day, 14 Day Forecasts. There is a weather forecast for every taste.

Feedback
Lebanon Weather Map
UTC Time: 12/5/2020, 06:33
Your Time:

Lebanon, OR Regional Weather

Expires:202012050700;;859779
ASUS46 KPQR 050610
RWROR 

OREGON REGIONAL WEATHER ROUNDUP
NATIONAL WEATHER SERVICE PORTLAND OR
1000 PM PST FRI DEC 04 2020

NOTE: "FAIR" INDICATES FEW OR NO CLOUDS BELOW 12,000 FEET WITH
NO SIGNIFICANT WEATHER AND/OR OBSTRUCTIONS TO VISIBILITY.


ORZ001>013-050700-
NORTHWEST OREGON

  
CITY           SKY/WX    TMP DP  RH WIND       PRES   REMARKS
ASTORIA        CLEAR     47  35  63 E6        30.20F                  
6HR MIN TEMP:  43; 6HR MAX TEMP:  52;                                

TILLAMOOK      CLEAR     39  36  87 CALM      30.20F                  
NEWPORT        CLEAR     50  32  50 E22G32    30.18F                  
FLORENCE       FAIR      48  35  60 NE8G17    30.15F                  
PORTLAND       CLEAR     41  30  65 SE13      30.33F                  
6HR MIN TEMP:  40; 6HR MAX TEMP:  48;                                

VANCOUVER WA   CLEAR     41  28  60 CALM      30.33F                  
6HR MIN TEMP:  38; 6HR MAX TEMP:  49;                                

SCAPPOOSE      CLEAR     31  30  96 W5        30.33F                  
6HR MIN TEMP:  31; 6HR MAX TEMP:  49;                                

HILLSBORO      CLEAR     32  31  96 VRB3      30.32F                  
6HR MIN TEMP:  31; 6HR MAX TEMP:  50;                                

AURORA         CLEAR     40  29  64 N3        30.31F                  
6HR MIN TEMP:  39; 6HR MAX TEMP:  52;                                

MCMINNVILLE    CLEAR     44  31  60 N8        30.30F                  
6HR MIN TEMP:  43; 6HR MAX TEMP:  54;                                

SALEM          CLEAR     33  30  88 CALM      30.29F                  
6HR MIN TEMP:  31; 6HR MAX TEMP:  49;                                

CORVALLIS      CLEAR     30  29  96 CALM      30.29F                  
EUGENE         CLEAR     33  31  92 CALM      30.28F                  
6HR MIN TEMP:  32; 6HR MAX TEMP:  44;                                

CRESWELL       FOG       30  30 100 CALM      30.27F VSB 1/4          
$$


SKY/WX - Weather  TMP - Temperature  DP - Dew Point  RH - Relative Humidity
WIND - Wind Direction/Speed PRES - Barometric Pressure VSB - Visibility
WCI - Wind Chill Index E13G22 Wind - East Wind 13 mph/Gusts of 22 mph